This is the latest recevied weather packets stored in our database for station/object IU1OLT-6. If no packets are shown the sender has not sent any weather packets the latest 10 day(s).
| Time | Temp. | Humidity | Pressure | Rain* | Wind** | Luminosity | Snow |
|---|---|---|---|---|---|---|---|
| 1787896601 | 17.22° C | 85% | 1015.7 hPa | 0 mm | - | - | - |
| 1787895689 | 16.67° C | 89% | 1015.2 hPa | 0 mm | - | - | - |
| 1787894729 | 17.22° C | 97% | 1016.1 hPa | 0 mm | - | - | - |
| 1787893769 | 17.22° C | 97% | 1016.3 hPa | 0 mm | - | - | - |
| 1787892857 | 16.67° C | 95% | 1016.2 hPa | 0 mm | - | - | - |
| 1787891945 | 17.22° C | 88% | 1015.4 hPa | 0 mm | - | - | - |
| 1787890985 | 17.22° C | 83% | 1014.9 hPa | 0 mm | - | - | - |
| 1787890073 | 17.22° C | 79% | 1014.8 hPa | 0 mm | - | - | - |
| 1787889161 | 17.22° C | 81% | 1014.9 hPa | 0 mm | - | - | - |
| 1787888249 | 17.22° C | 84% | 1014.7 hPa | 0 mm | - | - | - |
| 1787887337 | 16.67° C | 87% | 1015 hPa | 0 mm | - | - | - |
| 1787886377 | 15.56° C | 96% | 1014.7 hPa | 0 mm | - | - | - |
| 1787885417 | 17.22° C | 97% | 1015.5 hPa | 0 mm | - | - | - |
| 1787884457 | 17.22° C | 98% | 1016.1 hPa | 0 mm | - | - | - |
| 1787883497 | 17.22° C | 97% | 1016.3 hPa | 0 mm | - | - | - |
| 1787882537 | 17.22° C | 97% | 1015.6 hPa | 0 mm | - | - | - |
| 1787881577 | 17.22° C | 96% | 1015.5 hPa | 0 mm | - | - | - |
| 1787880617 | 17.22° C | 96% | 1016.3 hPa | 0 mm | - | - | - |
| 1787879657 | 17.22° C | 93% | 1015.8 hPa | 0 mm | - | - | - |
| 1787878697 | 17.78° C | 88% | 1015.6 hPa | 0 mm | - | - | - |
| 1787877737 | 17.78° C | 79% | 1015.8 hPa | 0 mm | - | - | - |
| 1787876777 | 17.78° C | 84% | 1016.3 hPa | 0 mm | - | - | - |
| 1787875865 | 17.78° C | 87% | 1015.8 hPa | 0 mm | - | - | - |
| 1787874953 | 17.22° C | 91% | 1016 hPa | 0 mm | - | - | - |
| 1787874041 | 17.22° C | 91% | 1016.3 hPa | 0 mm | - | - | - |
* Rain latest hour (hover to see other rain measurements)
** Current wind speed in m/s (hover to see current wind gust speed)